Weather History for Leadville, CO

Change the Weather History Date:

Monday, August 5, 2013

  Actual Average Record
Temperature  
Mean Temperature 53 °F -  
Max Temperature 67 °F 69 °F 77 °F (1981)
Min Temperature 38 °F 39 °F 29 °F (1976)
Degree Days  
Heating Degree Days 12 11  
Month to date heating degree days 51 55  
Since 1 June heating degree days 689 871  
Since 1 July heating degree days 318 391  
Cooling Degree Days 0 0  
Month to date cooling degree days 0 0  
Year to date cooling degree days 0 0  
Since 1 June cooling degree days 0 0  
Growing Degree Days 2 (Base 50)    
Moisture  
Dew Point 41 °F    
Average Humidity 68    
Maximum Humidity 100    
Minimum Humidity 36    
Precipitation  
Precipitation T in 0.07 in 0.54 in (2001)
Month to date precipitation 0.12 0.33  
Year to date precipitation 10.35 7.25  
Sea Level Pressure  
Sea Level Pressure 30.15 in    
Wind  
Wind Speed 5 mph (North)    
Max Wind Speed 22 mph    
Max Gust Speed 25 mph    
Visibility 10 miles    
Events Rain , Thunderstorm    
T = Trace of Precipitation, MM = Missing Value Source: NWS Daily Summary

Daily Weather History Graph

Daily Weather History Graph

Search for Another Location

Airport:

Trip Planner

Search our weather history database for the weather conditions in past years. The results will help you decide how hot, cold, wet, or windy it might be!

Date:

Astronomy

Aug. 05, 2013 Rise Set
Actual Time 6:09 AM MDT 8:12 PM MDT
Civil Twilight 5:39 AM MDT 8:41 PM MDT
Nautical Twilight 5:03 AM MDT 9:17 PM MDT
Astronomical Twilight 4:24 AM MDT 9:56 PM MDT
Moon 5:06 AM MDT (8/5) 7:14 PM MDT (8/5)
Length of Visible Light 15h 01m
Length of Day
14h 03m
Waning Crescent, 1% of the Moon is Illuminated
Aug 5
Waning Crescent
Aug 6
New
Aug 14
First Quarter
Aug 20
Full
Aug 28
Last Quarter

Hourly Weather History & Observations

Time (MDT) Temp. Windchill Dew Point Humidity Pressure Visibility Wind Dir Wind Speed Gust Speed Precip Events Conditions
12:53 AM 42.1 °F 40.2 °F 39.9 °F 92% 30.04 in 10.0 mi NNE 3.5 mph - N/A   Partly Cloudy
1:53 AM 42.1 °F 39.2 °F 39.9 °F 92% 30.04 in 10.0 mi ENE 4.6 mph - N/A   Clear
2:53 AM 39.9 °F 36.7 °F 39.0 °F 97% 30.10 in 10.0 mi NNE 4.6 mph - N/A   Clear
3:53 AM 41.0 °F 39.0 °F 39.0 °F 93% 30.06 in 10.0 mi North 3.5 mph - N/A   Clear
4:53 AM 39.9 °F 37.8 °F 39.0 °F 97% 30.06 in 10.0 mi NNE 3.5 mph - N/A   Clear
5:53 AM 39.9 °F - 37.9 °F 93% 30.10 in 10.0 mi Calm Calm - N/A   Clear
6:53 AM 39.9 °F 37.8 °F 37.0 °F 89% 30.12 in 10.0 mi NE 3.5 mph - N/A   Clear
7:53 AM 48.9 °F - 41.0 °F 74% 30.08 in 10.0 mi NE 5.8 mph - N/A   Clear
8:53 AM 57.9 °F - 43.0 °F 58% 30.03 in 10.0 mi NW 4.6 mph - N/A   Clear
9:53 AM 61.0 °F - 39.0 °F 44% 30.02 in 10.0 mi North 3.5 mph - N/A   Clear
10:53 AM 63.0 °F - 37.9 °F 40% 30.01 in 10.0 mi NW 4.6 mph - N/A   Clear
11:53 AM 66.0 °F - 39.0 °F 37% 29.98 in 10.0 mi Variable 5.8 mph - N/A   Partly Cloudy
12:29 PM 64.4 °F - 37.4 °F 37% 30.48 in 10.0 mi NW 8.1 mph 18.4 mph N/A Thunderstorm Mostly Cloudy
12:44 PM 64.4 °F - 37.4 °F 37% 30.48 in 10.0 mi NNW 11.5 mph 17.3 mph N/A   Overcast
12:53 PM 64.0 °F - 37.9 °F 38% 30.01 in 10.0 mi NNW 9.2 mph - N/A   Overcast
1:01 PM 62.6 °F - 41.0 °F 45% 30.48 in 10.0 mi North 12.7 mph 19.6 mph N/A Thunderstorm Overcast
1:43 PM 60.8 °F - 37.4 °F 42% 30.49 in 10.0 mi WNW 8.1 mph - N/A   Mostly Cloudy
1:53 PM 62.1 °F - 36.0 °F 38% 30.04 in 10.0 mi NNW 4.6 mph - N/A   Mostly Cloudy
2:18 PM 55.4 °F - 42.8 °F 63% 30.50 in 10.0 mi SE 9.2 mph 19.6 mph 0.00 in Rain Light Rain
2:53 PM 60.1 °F - 39.9 °F 47% 30.06 in 10.0 mi SE 9.2 mph - 0.00 in Rain Light Rain
3:53 PM 66.0 °F - 37.0 °F 34% 29.99 in 10.0 mi NW 8.1 mph - 0.00 in   Mostly Cloudy
4:53 PM 63.0 °F - 39.0 °F 41% 30.00 in 10.0 mi WSW 3.5 mph - N/A   Overcast
5:30 PM 60.8 °F - 39.2 °F 45% 30.46 in 10.0 mi South 20.7 mph 25.3 mph N/A Thunderstorm Thunderstorm
5:48 PM 55.4 °F - 44.6 °F 67% 30.46 in 10.0 mi SSE 12.7 mph 20.7 mph 0.00 in Rain Light Rain
5:53 PM 55.0 °F - 45.0 °F 69% 30.06 in 10.0 mi SSE 15.0 mph - 0.00 in Rain Light Rain
6:00 PM 55.4 °F - 44.6 °F 67% 30.46 in 10.0 mi SE 10.4 mph - 0.00 in Thunderstorm Overcast
6:18 PM 55.4 °F - 44.6 °F 67% 30.45 in 10.0 mi SSE 10.4 mph - 0.00 in   Overcast
6:53 PM 54.0 °F - 46.0 °F 75% 30.07 in 10.0 mi WSW 4.6 mph - 0.00 in   Overcast
7:53 PM 54.0 °F - 46.0 °F 75% 30.01 in 10.0 mi Calm Calm - N/A   Mostly Cloudy
8:53 PM 51.1 °F - 46.0 °F 83% 29.98 in 10.0 mi Calm Calm - N/A   Scattered Clouds
9:53 PM 48.0 °F - 44.1 °F 86% 29.99 in 10.0 mi Calm Calm - N/A   Clear
10:53 PM 46.9 °F - 43.0 °F 86% 30.00 in 10.0 mi NNW 6.9 mph - N/A   Mostly Cloudy
11:53 PM 50.0 °F - 44.1 °F 80% 29.94 in 10.0 mi ESE 4.6 mph - N/A   Mostly Cloudy